TITAN 3C TRANSTAGE DEB, 3488

Orbit data source: Space-Track

TITAN 3C TRANSTAGE DEB, 3488 is space debris in LEO originally from a launch on Fri, 15 Oct 1965 UTC launched from the Air Force Eastern Test Range (AFETR). Debris objects in space refer to the collection of defunct objects orbiting the Earth. Examples of debris include non-operational satellites, rocket bodies, and fragments generated from explosions, collisions, or faulty payload assembly.

Loading next visibility...
Identifier
3488, 1965-082QJ
Orbit
LEO
Country
Flag of USUS
Related business
Manufacturer
Unknown
Mission
Spacecraft
Bus & Motor
Unknown
Mass
Unknown
Launch date (UTC)
1965-10-15 (60 years ago)
Launch vehicle
Unknown
Launch site
Air Force Eastern Test Range (AFETR)
Object type
Payload
Rocket body
Debris
Shape & HBR
Unknown shape, 0.2 m
Radar Cross Section
Small (<0.1 m²)

Expand to show TLE details & history
Last TLE update: 12 hours ago

TLE from 12 hours ago
0 TITAN 3C TRANSTAGE DEB
1 03488U 65082QJ  25349.64195273  .00001802  00000-0  23706-3 0  9996
2 03488  32.2286  81.6924 0023863 208.8403 151.0930 14.78234561170733
Epoch: 2025-12-15T15:24Z
TLE epoch observation values (Epoch: 2025-12-15T15:24:24.715Z)
Latitude
-0.00001°
Longitude
126.05182°
Altitude
648.208 km
Speed
7.528 km/s
True Right ascension
05h 26m 46s
True Declination
0° 00' 00"
Sunlit
Object was in full shadow at epoch
Visualization orbit readout
Latitude
Unknown
Longitude
Unknown
Altitude
Unknown
Speed
Unknown
Apparent Right ascension
Unknown
Apparent Declination
Unknown
Sunlit
N/A
Visualization observer readout
Local Sidereal Time
02:12:46
Azimuth
Unknown
Elevation
Unknown
Doppler factor
Unknown
Orbital elements
Apogee altitude
655.253 km
Perigee altitude
621.765 km
Semi-major axis
7,016.646 km
Eccentricity
0.00239
Inclination
32.2286°
RAAN
81.6924°
Arg. of periapsis
208.8403°
True anomaly
151.22484°
Mean anomaly
151.093°
Eccentric anomaly
151.15895°
Mean motion
3.69274 °/min
Orbital period
97.49 mins
BSTAR
0.00023706

Documentation

Showing up to 5 results
|